Location: Bemmer
(51.5498°N, 5.6249°E)
Time: 18:07:05
(UTC+00:00)

SME Rocket - Pass Details

Date: 03 March 2021
Orbit: 550 x 2652 km, 99.9° (Epoch: 12 April)

Event Time Altitude Azimuth Distance (km) Brightness Sun altitude
Rises 19:04:50 0° 16° (NNE) 5,172 7.7 -16.8°
Reaches altitude 10° 19:08:32 10° 20° (NNE) 3,855 7.0 -17.3°
Maximum altitude 19:17:05 58° 98° (E) 1,321 4.3 -18.6°
Drops below altitude 10° 19:22:34 10° 177° (S) 2,513 6.0 -19.5°
Sets 19:24:33 0° 182° (S) 3,269 6.6 -19.8°
